Weather History for KCMA - October, 2013

Change the Weather History Date:

Wednesday, October 9, 2013

  Actual Average Record
Temperature  
Mean Temperature 57 °F 64 °F  
Max Temperature 65 °F 74 °F 96 °F (1976)
Min Temperature 49 °F 54 °F 42 °F (1949)
Degree Days  
Heating Degree Days 8 2  
Month to date heating degree days 15 18  
Since 1 July heating degree days 20 50  
Cooling Degree Days 0 1  
Month to date cooling degree days 27 9  
Year to date cooling degree days 609 292  
Growing Degree Days 8 (Base 50)    
Moisture  
Dew Point 50 °F    
Average Humidity 68    
Maximum Humidity 80    
Minimum Humidity 56    
Precipitation  
Precipitation T in 0.01 in 0.00 in (2015)
Month to date precipitation T 0.10  
Year to date precipitation 2.19 11.32  
Since 1 July precipitation 0.04 0.34  
Sea Level Pressure  
Sea Level Pressure 29.77 in    
Wind  
Wind Speed 9 mph (WSW)    
Max Wind Speed 26 mph    
Max Gust Speed 32 mph    
Visibility 10 miles    
Events      
T = Trace of Precipitation, MM = Missing Value Source: NWS Daily Summary

Daily Weather History Graph

Daily Weather History Graph

Search for Another Location

Airport or City:

Trip Planner

Search our weather history database for the weather conditions in past years. The results will help you decide how hot, cold, wet, or windy it might be!

Date:

Astronomy

Oct. 09, 2013 Rise Set
Actual Time 6:57 AM PDT 6:29 PM PDT
Civil Twilight 6:32 AM PDT 6:54 PM PDT
Nautical Twilight 6:02 AM PDT 7:23 PM PDT
Astronomical Twilight 5:33 AM PDT 7:52 PM PDT
Moon 11:47 AM PDT (10/9) 10:19 PM PDT (10/9)
Length of Visible Light 12h 22m
Length of Day
11h 32m
Waxing Crescent, 26% of the Moon is Illuminated
Oct 9
Waxing Crescent
Oct 11
First Quarter
Oct 18
Full
Oct 26
Last Quarter
Nov 3
New

Hourly Weather History & Observations

Time (PDT) Temp. Dew Point Humidity Pressure Visibility Wind Dir Wind Speed Gust Speed Precip Events Conditions
12:55 AM 61.0 °F 53.1 °F 75% 29.83 in 10.0 mi Calm Calm - N/A   Overcast
1:55 AM 61.0 °F 53.1 °F 75% 29.81 in 10.0 mi Calm Calm - N/A   Overcast
2:55 AM 59.0 °F 53.1 °F 81% 29.80 in 10.0 mi West 3.5 mph - N/A   Mostly Cloudy
3:55 AM 60.1 °F 53.1 °F 78% 29.79 in 10.0 mi Calm Calm - N/A   Mostly Cloudy
4:10 AM 60.8 °F 53.6 °F 77% 29.75 in 10.0 mi Calm Calm - N/A   Scattered Clouds
4:18 AM 59.0 °F 53.6 °F 82% 29.75 in 10.0 mi Calm Calm - N/A   Mostly Cloudy
4:55 AM 60.1 °F 53.1 °F 78% 29.78 in 10.0 mi West 8.1 mph - N/A   Mostly Cloudy
5:14 AM 60.8 °F 53.6 °F 77% 29.76 in 10.0 mi West 4.6 mph - N/A   Scattered Clouds
5:27 AM 60.8 °F 53.6 °F 77% 29.75 in 10.0 mi West 5.8 mph - N/A   Mostly Cloudy
5:55 AM 59.0 °F 52.0 °F 78% 29.78 in 10.0 mi West 4.6 mph - N/A   Mostly Cloudy
6:55 AM 57.9 °F 52.0 °F 81% 29.78 in 10.0 mi West 3.5 mph - N/A   Scattered Clouds
7:39 AM 59.0 °F 53.6 °F 82% 29.76 in 8.0 mi SW 3.5 mph - N/A   Mostly Cloudy
7:55 AM 60.1 °F 53.1 °F 78% 29.79 in 8.0 mi Calm Calm - N/A   Mostly Cloudy
8:55 AM 61.0 °F 51.1 °F 70% 29.80 in 9.0 mi West 13.8 mph - 0.00 in   Mostly Cloudy
9:55 AM 62.1 °F 51.1 °F 67% 29.80 in 9.0 mi West 18.4 mph - N/A   Mostly Cloudy
10:55 AM 63.0 °F 48.0 °F 58% 29.78 in 10.0 mi West 17.3 mph - N/A   Mostly Cloudy
11:55 AM 62.1 °F 50.0 °F 65% 29.78 in 10.0 mi West 17.3 mph - N/A   Overcast
12:55 PM 63.0 °F 48.0 °F 58% 29.77 in 10.0 mi West 19.6 mph 25.3 mph N/A   Overcast
1:55 PM 61.0 °F 46.9 °F 60% 29.75 in 10.0 mi WSW 15.0 mph - 0.00 in   Overcast
2:55 PM 63.0 °F 46.9 °F 56% 29.73 in 10.0 mi West 17.3 mph 21.9 mph N/A   Mostly Cloudy
3:55 PM 63.0 °F 46.0 °F 54% 29.73 in 10.0 mi WSW 17.3 mph 24.2 mph N/A   Mostly Cloudy
4:55 PM 62.1 °F 46.0 °F 56% 29.73 in 10.0 mi West 17.3 mph 26.5 mph N/A   Mostly Cloudy
5:55 PM 60.1 °F 46.9 °F 62% 29.73 in 10.0 mi WSW 15.0 mph - N/A   Mostly Cloudy
6:55 PM 59.0 °F 48.0 °F 67% 29.73 in 10.0 mi WSW 10.4 mph - N/A   Mostly Cloudy
7:55 PM 57.0 °F 46.0 °F 67% 29.74 in 10.0 mi West 5.8 mph - N/A   Clear
8:55 PM 55.9 °F 46.0 °F 69% 29.76 in 10.0 mi Calm Calm - N/A   Clear
9:55 PM 55.9 °F 45.0 °F 67% 29.79 in 10.0 mi Calm Calm - N/A   Clear
10:55 PM 53.1 °F 45.0 °F 74% 29.81 in 10.0 mi Calm Calm - N/A   Clear
11:55 PM 50.0 °F 44.1 °F 80% 29.82 in 10.0 mi ENE 3.5 mph - N/A   Clear